IZ1GCT Weather Reports


Display with metric or nautical units.
time (UTC)temp
F
wind
direction
speed
MPH
gust
MPH
rain 1hr
in
rain 24hr
in
rain mn
in
humidity
%
barometer
mb
20260903053417 64 135 3.0 9.0 0.00 0.00 0.00 36 1024.1
20260903052916 63 158 2.0 5.0 0.00 0.00 0.00 41 1024.0
20260903052416 62 135 1.0 6.0 0.00 0.00 0.00 41 1024.0
20260903051917 62 140 2.0 3.0 0.00 0.00 0.00 41 1024.0
20260903051416 63 158 5.0 6.0 0.00 0.00 0.00 40 1023.9
20260903050915 63 158 2.0 3.0 0.00 0.00 0.00 40 1024.0
20260903050417 62 135 1.0 3.0 0.00 0.00 0.00 41 1023.8
20260903045916 62 135 2.0 3.0 0.00 0.00 0.00 44 1023.8
20260903045416 62 135 2.0 5.0 0.00 0.00 0.00 44 1023.8
20260903044917 62 150 1.0 2.0 0.00 0.00 0.00 43 1023.6
20260903044417 62 158 2.0 5.0 0.00 0.00 0.00 43 1023.6
20260903043916 61 135 0.0 1.0 0.00 0.00 0.00 45 1023.6
20260903043415 61 148 0.0 1.0 0.00 0.00 0.00 45 1023.6
20260903042917 61 145 1.0 6.0 0.00 0.00 0.00 45 1023.5
20260903042416 61 151 3.0 6.0 0.00 0.00 0.00 45 1023.5
20260903041916 61 135 2.0 5.0 0.00 0.00 0.00 48 1023.5
20260903041415 61 158 1.0 5.0 0.00 0.00 0.00 49 1023.6
20260903040917 61 150 0.0 1.0 0.00 0.00 0.00 50 1023.6
20260903040416 61 157 1.0 3.0 0.00 0.00 0.00 50 1023.6
20260903035415 61 135 0.0 1.0 0.00 0.00 0.00 51 1023.7
20260903034915 60 132 3.0 3.0 0.00 0.00 0.00 51 1023.7
20260903034415 61 158 0.0 1.0 0.00 0.00 0.00 51 1023.6
20260903033914 62 150 5.0 6.0 0.00 0.00 0.00 48 1023.6
20260903033416 62 143 1.0 2.0 0.00 0.00 0.00 50 1023.6
20260903032915 62 153 2.0 3.0 0.00 0.00 0.00 48 1023.8
20260903032415 62 135 2.0 3.0 0.00 0.00 0.00 50 1023.8
20260903031915 62 158 0.0 1.0 0.00 0.00 0.00 48 1023.7
20260903031414 63 144 1.0 2.0 0.00 0.00 0.00 46 1023.6
20260903030914 64 153 0.0 2.0 0.00 0.00 0.00 42 1023.7
20260903030415 64 135 0.0 1.0 0.00 0.00 0.00 42 1023.6
20260903025915 64 158 0.0 1.0 0.00 0.00 0.00 41 1023.5
20260903025414 65 112 1.0 1.0 0.00 0.00 0.00 41 1023.6
20260903024915 65 135 2.0 3.0 0.00 0.00 0.00 40 1023.5
20260903024415 65 121 2.0 3.0 0.00 0.00 0.00 40 1023.4
20260903023914 67 141 0.0 3.0 0.00 0.00 0.00 37 1023.5
20260903023416 67 147 1.0 2.0 0.00 0.00 0.00 36 1023.4
20260903022915 67 156 1.0 2.0 0.00 0.00 0.00 36 1023.3
20260903022414 68 135 7.0 9.0 0.00 0.00 0.00 36 1023.2
20260903021916 69 68 0.0 1.0 0.00 0.00 0.00 33 1023.2
20260903021415 69 141 1.0 3.0 0.00 0.00 0.00 32 1023.2
20260903020915 70 158 1.0 3.0 0.00 0.00 0.00 33 1023.2
20260903020414 72 135 0.0 2.0 0.00 0.00 0.00 31 1023.2
20260903015915 72 135 2.0 3.0 0.00 0.00 0.00 31 1023.2
20260903015415 72 135 2.0 3.0 0.00 0.00 0.00 31 1023.1
20260903014916 72 152 1.0 3.0 0.00 0.00 0.00 32 1023.1
20260903014415 72 135 2.0 3.0 0.00 0.00 0.00 31 1023.2
20260903013915 72 135 2.0 3.0 0.00 0.00 0.00 31 1023.1
20260903013416 72 135 3.0 7.0 0.00 0.00 0.00 32 1023.1
20260903012915 73 135 5.0 6.0 0.00 0.00 0.00 30 1023.2
20260903012414 73 135 5.0 7.0 0.00 0.00 0.00 30 1023.1
20260903011915 73 135 6.0 8.0 0.00 0.00 0.00 30 1023.1
20260903011414 73 135 7.0 9.0 0.00 0.00 0.00 30 1023.1
20260903010916 73 135 10.0 14.0 0.00 0.00 0.00 30 1023.1
20260903010417 73 135 10.0 13.0 0.00 0.00 0.00 30 1023.1
20260903005917 73 135 7.0 8.0 0.00 0.00 0.00 30 1023.1
20260903005417 73 135 6.0 9.0 0.00 0.00 0.00 31 1023.1
20260903004917 73 135 6.0 10.0 0.00 0.00 0.00 30 1023.1
20260903004416 73 135 7.0 9.0 0.00 0.00 0.00 31 1023.0
20260903003918 73 135 12.0 14.0 0.00 0.00 0.00 30 1023.0
20260903003417 73 158 3.0 6.0 0.00 0.00 0.00 31 1023.0
20260903002916 73 135 7.0 9.0 0.00 0.00 0.00 31 1022.9
20260903002417 73 135 7.0 9.0 0.00 0.00 0.00 31 1023.0
20260903001916 73 135 6.0 8.0 0.00 0.00 0.00 31 1023.1
20260903001417 74 135 5.0 8.0 0.00 0.00 0.00 30 1023.1
20260903000917 74 135 9.0 12.0 0.00 0.00 0.00 31 1023.0
20260903000417 74 135 6.0 8.0 0.00 0.00 0.00 30 1023.1
20260902235917 74 135 6.0 8.0 0.00 0.00 0.00 30 1023.0
20260902235416 74 135 8.0 12.0 0.00 0.00 0.00 31 1023.0
20260902234918 73 135 6.0 7.0 0.00 0.00 0.00 32 1023.0
20260902234417 74 135 6.0 7.0 0.00 0.00 0.00 31 1023.2
20260902233916 73 135 6.0 9.0 0.00 0.00 0.00 32 1023.2
20260902233416 73 135 7.0 9.0 0.00 0.00 0.00 32 1023.2
20260902232917 73 135 7.0 10.0 0.00 0.00 0.00 33 1023.3
20260902232418 74 135 7.0 8.0 0.00 0.00 0.00 33 1023.4
20260902231917 74 135 8.0 13.0 0.00 0.00 0.00 33 1023.3
20260902231416 73 135 7.0 9.0 0.00 0.00 0.00 33 1023.2
20260902230918 73 135 5.0 6.0 0.00 0.00 0.00 35 1023.2
20260902230417 73 135 3.0 10.0 0.00 0.00 0.00 36 1023.2
20260902225916 73 135 8.0 10.0 0.00 0.00 0.00 38 1023.2
20260902225418 73 152 6.0 8.0 0.00 0.00 0.00 39 1023.2
20260902224917 73 135 7.0 10.0 0.00 0.00 0.00 40 1023.3
20260902224416 73 135 6.0 8.0 0.00 0.00 0.00 39 1023.2
20260902223917 73 140 3.0 6.0 0.00 0.00 0.00 40 1023.2
20260902223416 73 135 7.0 10.0 0.00 0.00 0.00 40 1023.1
20260902222917 73 135 6.0 9.0 0.00 0.00 0.00 40 1023.1
20260902222417 73 135 2.0 6.0 0.00 0.00 0.00 42 1023.1
20260902221916 73 135 5.0 7.0 0.00 0.00 0.00 41 1023.2
20260902221418 73 135 7.0 10.0 0.00 0.00 0.00 42 1023.2
20260902220917 73 135 8.0 10.0 0.00 0.00 0.00 43 1023.1
20260902220416 73 135 6.0 8.0 0.00 0.00 0.00 45 1023.1
20260902215917 73 135 6.0 8.0 0.00 0.00 0.00 45 1023.0
20260902215416 73 135 6.0 8.0 0.00 0.00 0.00 47 1023.1
20260902214916 73 135 3.0 5.0 0.00 0.00 0.00 49 1023.0
20260902214417 73 135 5.0 8.0 0.00 0.00 0.00 49 1022.9
20260902213917 73 135 6.0 8.0 0.00 0.00 0.00 50 1022.9
20260902213416 73 135 5.0 8.0 0.00 0.00 0.00 51 1022.8
20260902212918 73 135 5.0 7.0 0.00 0.00 0.00 51 1022.8
20260902212417 73 135 5.0 6.0 0.00 0.00 0.00 51 1022.8
20260902211916 73 135 5.0 8.0 0.00 0.00 0.00 51 1022.8
20260902211418 73 151 5.0 10.0 0.00 0.00 0.00 51 1022.8
20260902210917 73 135 5.0 7.0 0.00 0.00 0.00 51 1022.8
20260902210416 74 135 5.0 7.0 0.00 0.00 0.00 51 1022.8
20260902205916 74 135 6.0 7.0 0.00 0.00 0.00 51 1022.9
20260902205417 74 135 6.0 8.0 0.00 0.00 0.00 51 1022.9
20260902204917 74 135 7.0 9.0 0.00 0.00 0.00 51 1022.8
20260902204416 74 135 9.0 13.0 0.00 0.00 0.00 52 1022.8
20260902203917 74 135 5.0 8.0 0.00 0.00 0.00 53 1022.9
20260902203417 74 135 5.0 8.0 0.00 0.00 0.00 53 1022.9
20260902202916 74 135 7.0 8.0 0.00 0.00 0.00 54 1022.9
20260902202417 74 135 3.0 6.0 0.00 0.00 0.00 54 1022.9
20260902201917 74 135 6.0 8.0 0.00 0.00 0.00 54 1022.9
20260902201416 74 145 5.0 7.0 0.00 0.00 0.00 55 1022.8
20260902200916 74 135 5.0 7.0 0.00 0.00 0.00 55 1022.8
20260902200417 74 135 5.0 9.0 0.00 0.00 0.00 56 1022.8
20260902195916 74 158 3.0 5.0 0.00 0.00 0.00 57 1022.7
20260902195416 74 135 8.0 10.0 0.00 0.00 0.00 58 1022.8
20260902194917 74 135 5.0 8.0 0.00 0.00 0.00 58 1022.7
20260902194417 74 135 3.0 6.0 0.00 0.00 0.00 60 1022.5
20260902193916 73 135 5.0 7.0 0.00 0.00 0.00 61 1022.6
20260902193417 73 135 1.0 3.0 0.00 0.00 0.00 62 1022.6
20260902192917 73 135 1.0 2.0 0.00 0.00 0.00 62 1022.6
20260902192417 73 135 2.0 3.0 0.00 0.00 0.00 63 1022.5
20260902191916 72 135 2.0 3.0 0.00 0.00 0.00 68 1022.4
20260902191417 72 135 1.0 1.0 0.00 0.00 0.00 68 1022.4
20260902190917 72 139 1.0 2.0 0.00 0.00 0.00 68 1022.4
20260902190416 72 158 2.0 3.0 0.00 0.00 0.00 69 1022.3
20260902185917 72 158 2.0 3.0 0.00 0.00 0.00 68 1022.3
20260902185417 72 142 0.0 2.0 0.00 0.00 0.00 66 1022.2
20260902184916 73 155 1.0 2.0 0.00 0.00 0.00 63 1022.1
20260902184417 73 135 0.0 1.0 0.00 0.00 0.00 64 1022.0
20260902183917 73 135 2.0 3.0 0.00 0.00 0.00 64 1021.9
20260902183416 73 158 2.0 3.0 0.00 0.00 0.00 63 1021.9
20260902182917 74 158 2.0 3.0 0.00 0.00 0.00 63 1021.8
20260902182417 74 158 2.0 3.0 0.00 0.00 0.00 62 1021.8
20260902181916 75 158 0.0 1.0 0.00 0.00 0.00 61 1021.8
20260902181416 75 158 0.0 0.0 0.00 0.00 0.00 60 1021.7
20260902180916 76 158 0.0 1.0 0.00 0.00 0.00 59 1021.7
20260902180417 76 158 1.0 2.0 0.00 0.00 0.00 59 1021.6
20260902175916 77 135 2.0 3.0 0.00 0.00 0.00 58 1021.5
20260902175417 77 158 2.0 3.0 0.00 0.00 0.00 58 1021.6
20260902174917 78 158 2.0 5.0 0.00 0.00 0.00 56 1021.5
20260902174416 78 135 2.0 3.0 0.00 0.00 0.00 55 1021.4
20260902173916 79 140 5.0 6.0 0.00 0.00 0.00 53 1021.3
20260902173417 79 102 2.0 3.0 0.00 0.00 0.00 52 1021.3
20260902172916 80 135 2.0 3.0 0.00 0.00 0.00 52 1021.3
20260902172416 81 152 3.0 6.0 0.00 0.00 0.00 51 1021.2
20260902171917 81 135 3.0 5.0 0.00 0.00 0.00 48 1021.3
20260902171416 82 132 5.0 6.0 0.00 0.00 0.00 45 1021.1
20260902170917 83 126 5.0 6.0 0.00 0.00 0.00 44 1021.2
20260902170417 84 135 2.0 3.0 0.00 0.00 0.00 44 1021.0
20260902165916 83 135 3.0 5.0 0.00 0.00 0.00 44 1021.0
20260902165416 83 135 3.0 6.0 0.00 0.00 0.00 43 1021.0
20260902164917 84 135 7.0 9.0 0.00 0.00 0.00 43 1020.9
20260902164417 84 135 7.0 10.0 0.00 0.00 0.00 42 1021.0
20260902163916 85 129 3.0 6.0 0.00 0.00 0.00 42 1021.0
20260902163417 85 134 5.0 8.0 0.00 0.00 0.00 41 1021.0
20260902162917 86 145 2.0 6.0 0.00 0.00 0.00 41 1020.8
20260902162416 86 135 5.0 8.0 0.00 0.00 0.00 41 1021.0
20260902161917 87 135 7.0 9.0 0.00 0.00 0.00 40 1021.0
20260902161417 87 146 5.0 7.0 0.00 0.00 0.00 41 1021.0
20260902160916 86 118 5.0 8.0 0.00 0.00 0.00 41 1020.9
20260902160416 86 135 6.0 8.0 0.00 0.00 0.00 41 1021.0
20260902155420 87 146 7.0 10.0 0.00 0.00 0.00 41 1021.0
20260902154919 86 158 7.0 8.0 0.00 0.00 0.00 41 1021.1
20260902154421 86 158 6.0 8.0 0.00 0.00 0.00 42 1021.1
20260902153921 86 152 8.0 10.0 0.00 0.00 0.00 41 1021.0
20260902153421 87 142 7.0 9.0 0.00 0.00 0.00 41 1021.0
20260902152920 87 112 8.0 10.0 0.00 0.00 0.00 40 1021.0
20260902152419 87 135 6.0 8.0 0.00 0.00 0.00 40 1021.0
20260902151920 87 135 3.0 6.0 0.00 0.00 0.00 41 1021.1
20260902151421 86 135 10.0 13.0 0.00 0.00 0.00 41 1021.1
20260902150921 86 112 5.0 8.0 0.00 0.00 0.00 41 1021.1
20260902150420 87 124 7.0 8.0 0.00 0.00 0.00 42 1021.1
20260902145921 86 135 7.0 10.0 0.00 0.00 0.00 42 1021.1
20260902145420 86 135 9.0 13.0 0.00 0.00 0.00 42 1021.1
20260902144920 86 120 8.0 10.0 0.00 0.00 0.00 41 1021.1
20260902144421 86 134 6.0 9.0 0.00 0.00 0.00 43 1021.2
20260902143921 86 135 9.0 13.0 0.00 0.00 0.00 42 1021.2
20260902143421 86 122 8.0 10.0 0.00 0.00 0.00 42 1021.3
20260902142920 86 112 8.0 10.0 0.00 0.00 0.00 43 1021.3
20260902142419 86 121 7.0 12.0 0.00 0.00 0.00 42 1021.4
20260902141920 87 121 7.0 9.0 0.00 0.00 0.00 42 1021.4
20260902141421 87 126 6.0 8.0 0.00 0.00 0.00 42 1021.2
20260902140920 86 135 6.0 8.0 0.00 0.00 0.00 42 1021.4
20260902140420 86 106 7.0 13.0 0.00 0.00 0.00 43 1021.4
20260902135921 86 158 3.0 6.0 0.00 0.00 0.00 43 1021.5
20260902135421 86 116 7.0 9.0 0.00 0.00 0.00 43 1021.5
20260902134920 86 149 3.0 7.0 0.00 0.00 0.00 42 1021.5
20260902134421 86 112 9.0 14.0 0.00 0.00 0.00 42 1021.5
20260902133921 87 152 7.0 10.0 0.00 0.00 0.00 42 1021.6
20260902133420 85 158 6.0 12.0 0.00 0.00 0.00 43 1021.7
20260902132919 86 112 12.0 14.0 0.00 0.00 0.00 42 1021.7
20260902132421 85 132 7.0 10.0 0.00 0.00 0.00 41 1021.7
20260902131921 85 135 6.0 10.0 0.00 0.00 0.00 42 1021.7
20260902131420 85 119 8.0 13.0 0.00 0.00 0.00 43 1021.8
20260902130921 84 152 9.0 12.0 0.00 0.00 0.00 43 1021.7
20260902130421 85 135 8.0 13.0 0.00 0.00 0.00 42 1021.8
20260902125920 85 135 9.0 12.0 0.00 0.00 0.00 42 1021.7
20260902125421 85 117 8.0 10.0 0.00 0.00 0.00 42 1021.9
20260902124919 84 135 8.0 10.0 0.00 0.00 0.00 42 1021.9
20260902124421 84 123 6.0 8.0 0.00 0.00 0.00 41 1022.0
20260902123920 84 112 5.0 7.0 0.00 0.00 0.00 42 1022.1
20260902123420 84 135 6.0 8.0 0.00 0.00 0.00 43 1022.0
20260902122921 85 135 5.0 7.0 0.00 0.00 0.00 41 1022.1
20260902122420 84 112 6.0 9.0 0.00 0.00 0.00 43 1022.1
20260902121920 84 118 7.0 10.0 0.00 0.00 0.00 42 1022.1
20260902121419 85 142 7.0 9.0 0.00 0.00 0.00 42 1022.2
20260902120921 84 135 3.0 5.0 0.00 0.00 0.00 43 1022.2
20260902120420 84 126 6.0 10.0 0.00 0.00 0.00 43 1022.3
20260902115921 84 158 6.0 8.0 0.00 0.00 0.00 44 1022.3
20260902115420 84 157 5.0 8.0 0.00 0.00 0.00 44 1022.4
20260902114920 83 129 8.0 10.0 0.00 0.00 0.00 43 1022.4
20260902114421 83 128 5.0 7.0 0.00 0.00 0.00 44 1022.5
20260902113921 83 135 6.0 8.0 0.00 0.00 0.00 44 1022.6
20260902113420 84 135 6.0 9.0 0.00 0.00 0.00 43 1022.6
20260902112919 84 158 6.0 8.0 0.00 0.00 0.00 43 1022.7
20260902112421 84 155 7.0 9.0 0.00 0.00 0.00 42 1022.8
20260902111920 84 135 5.0 7.0 0.00 0.00 0.00 43 1022.8
20260902111420 83 135 6.0 10.0 0.00 0.00 0.00 42 1023.0
20260902110920 84 140 6.0 8.0 0.00 0.00 0.00 41 1023.1
20260902110421 83 147 5.0 6.0 0.00 0.00 0.00 42 1023.2
20260902105921 82 158 5.0 6.0 0.00 0.00 0.00 41 1023.2
20260902105421 82 158 8.0 13.0 0.00 0.00 0.00 41 1023.3
20260902104920 82 138 3.0 6.0 0.00 0.00 0.00 41 1023.4
20260902104421 82 119 7.0 10.0 0.00 0.00 0.00 40 1023.4
20260902103920 82 112 7.0 10.0 0.00 0.00 0.00 40 1023.5
20260902103421 82 152 5.0 7.0 0.00 0.00 0.00 39 1023.5
20260902102920 82 135 2.0 8.0 0.00 0.00 0.00 40 1023.6
20260902102420 83 140 6.0 10.0 0.00 0.00 0.00 40 1023.7
20260902101921 82 120 5.0 6.0 0.00 0.00 0.00 40 1023.8
20260902101421 82 135 5.0 6.0 0.00 0.00 0.00 38 1023.9
20260902100920 82 135 5.0 7.0 0.00 0.00 0.00 33 1023.8
20260902100419 81 155 3.0 6.0 0.00 0.00 0.00 32 1023.9
20260902095921 82 135 3.0 5.0 0.00 0.00 0.00 30 1023.9
20260902095420 81 135 3.0 6.0 0.00 0.00 0.00 31 1023.9
20260902094919 81 135 5.0 8.0 0.00 0.00 0.00 31 1023.8
20260902094422 82 135 3.0 6.0 0.00 0.00 0.00 29 1024.0
20260902093920 82 133 2.0 6.0 0.00 0.00 0.00 29 1024.0
20260902093419 83 158 5.0 6.0 0.00 0.00 0.00 27 1023.9
20260902092921 82 158 2.0 3.0 0.00 0.00 0.00 26 1024.1
20260902092420 84 158 1.0 2.0 0.00 0.00 0.00 26 1024.0
20260902091921 85 148 1.0 2.0 0.00 0.00 0.00 25 1024.1
20260902091420 82 135 0.0 0.0 0.00 0.00 0.00 27 1024.0
20260902090920 79 154 0.0 1.0 0.00 0.00 0.00 34 1024.2
20260902090421 79 135 1.0 2.0 0.00 0.00 0.00 34 1024.1
20260902085921 79 135 0.0 0.0 0.00 0.00 0.00 40 1024.2
20260902085420 77 135 0.0 1.0 0.00 0.00 0.00 41 1024.3
20260902084919 75 152 0.0 1.0 0.00 0.00 0.00 48 1024.2
20260902084421 72 68 0.0 1.0 0.00 0.00 0.00 57 1024.3
20260902083920 71 68 1.0 1.0 0.00 0.00 0.00 55 1024.2
20260902083419 70 158 0.0 1.0 0.00 0.00 0.00 56 1024.4
20260902082921 70 158 0.0 0.0 0.00 0.00 0.00 57 1024.3
20260902082420 70 158 0.0 0.0 0.00 0.00 0.00 58 1024.4
20260902081920 69 158 0.0 0.0 0.00 0.00 0.00 61 1024.2
20260902081421 69 158 0.0 0.0 0.00 0.00 0.00 60 1024.2
20260902080920 68 158 0.0 1.0 0.00 0.00 0.00 58 1024.2
20260902080419 68 135 0.0 1.0 0.00 0.00 0.00 58 1024.2
20260902075921 68 158 0.0 1.0 0.00 0.00 0.00 56 1024.1
20260902075421 68 142 0.0 1.0 0.00 0.00 0.00 56 1024.1
20260902074919 68 158 3.0 5.0 0.00 0.00 0.00 54 1024.0
20260902074421 67 135 0.0 0.0 0.00 0.00 0.00 52 1024.0
20260902073921 67 135 1.0 2.0 0.00 0.00 0.00 56 1024.0
20260902073420 66 158 2.0 3.0 0.00 0.00 0.00 60 1023.9
20260902072920 67 158 2.0 3.0 0.00 0.00 0.00 56 1023.9
20260902072421 67 158 1.0 1.0 0.00 0.00 0.00 55 1023.9
20260902071920 67 158 2.0 3.0 0.00 0.00 0.00 54 1023.9
20260902071420 68 135 0.0 1.0 0.00 0.00 0.00 50 1024.0
20260902070921 69 138 0.0 1.0 0.00 0.00 0.00 43 1023.9
20260902070421 69 158 0.0 1.0 0.00 0.00 0.00 42 1023.8
20260902065920 69 157 2.0 3.0 0.00 0.00 0.00 40 1023.8
20260902065419 70 135 1.0 2.0 0.00 0.00 0.00 39 1023.8
20260902064921 71 135 2.0 5.0 0.00 0.00 0.00 41 1023.8
20260902064421 69 158 1.0 3.0 0.00 0.00 0.00 41 1024.0
20260902063921 68 135 1.0 3.0 0.00 0.00 0.00 39 1023.9
20260902063421 68 135 3.0 6.0 0.00 0.00 0.00 37 1024.0
20260902062920 68 135 3.0 6.0 0.00 0.00 0.00 40 1023.9
20260902062419 68 135 3.0 6.0 0.00 0.00 0.00 40 1023.8
20260902061919 68 135 3.0 6.0 0.00 0.00 0.00 40 1023.8
20260902061421 67 135 2.0 5.0 0.00 0.00 0.00 43 1023.7
20260902060920 66 135 2.0 3.0 0.00 0.00 0.00 48 1023.8
20260902060420 66 158 1.0 3.0 0.00 0.00 0.00 50 1023.8
20260902055919 67 158 0.0 0.0 0.00 0.00 0.00 49 1023.8
20260902055420 67 158 0.0 0.0 0.00 0.00 0.00 48 1023.8
20260902054920 66 158 1.0 2.0 0.00 0.00 0.00 45 1023.7
20260902054420 67 158 1.0 1.0 0.00 0.00 0.00 44 1023.6
20260902053921 66 158 1.0 3.0 0.00 0.00 0.00 40 1023.8